Regional Weather Roundup
Issued by NWS

Home | Current Version | Previous Version | Graphics & Text | Print | Product List | Glossary On
Versions: 1 2 3 4 5 6 7 8 9 10 11 12 13 14 15 16 17 18 19 20 21 22 23 24 25 26 27 28 29 30 31 32 33 34 35 36 37 38 39 40 41 42 43 44 45 46 47 48
000
ASUS45 KCYS 281010
RWRWY

WYOMING REGIONAL WEATHER ROUNDUP
NATIONAL WEATHER SERVICE CHEYENNE WY
300 AM MST SAT FEB 28 2015

NOTE:  "FAIR" INDICATES FEW OR NO CLOUDS BELOW 12,000 FEET
WITH NO SIGNIFICANT WEATHER AND/OR OBSTRUCTIONS TO VISIBILITY.

WYZ001-281100-
YELLOWSTONE NATIONAL PARK

CITY           SKY/WX    TMP DP  RH WIND       PRES   REMARKS
LK YELLOWSTONE   N/A     -9 -14  78 CALM      29.77S
W YELLOWSTONE  NOT AVBL

$$
WYZ002>013-054>058-071-098>099-281100-
NORTHERN WYOMING

CITY           SKY/WX    TMP DP  RH WIND       PRES   REMARKS
JACKSON        FAIR      10   7  85 N13       29.77S WCI  -5
CODY           FAIR       9   5  85 NE8       29.93S WCI  -4
GREYBULL       FAIR      16   6  65 NW15      29.97S WCI   1
WORLAND        FAIR      18  14  84 N5        29.96R WCI  11
SHERIDAN       CLOUDY    12   5  73 NW8       30.04S WCI   0
BUFFALO        FAIR       7   3  84 N9        29.95S WCI  -7
GILLETTE       MOCLDY     8   4  83 NW7       29.98R WCI  -3
HULETT         FLURRIES  14   9  79 NW6       29.98S WCI   5
NEWCASTLE      FAIR       9   5  85 CALM      29.97S

$$
WYZ014>020-022>026-101>103-281100-
CENTRAL WYOMING

CITY           SKY/WX    TMP DP  RH WIND       PRES   REMARKS
BIG PINEY      LGT SNOW  16  11  80 CALM      29.76S
PINEDALE       LGT SNOW  12  10  92 NW5       29.75F WCI   4
DUBOIS         LGT SNOW   7   3  85 NW6       29.79S VSB 1   WCI  -3
LANDER         CLOUDY    15  10  80 CALM      29.87F
RIVERTON       CLOUDY    14   9  80 CALM      29.89F
CASPER         CLOUDY    15   9  76 N9        29.91R WCI   3
DOUGLAS        CLOUDY    11   6  81 CALM      29.93S

$$
WYZ021-027>030-104>119-281100-
SOUTHERN WYOMING

CITY           SKY/WX    TMP DP  RH WIND       PRES   REMARKS
EVANSTON       FAIR      16   8  71 SE8       29.69S WCI   5
FORT BRIDGER   FAIR      18  17  99 NE5       29.74S WCI  11
ROCK SPRINGS   FAIR      11   6  81 NE17      29.77S WCI  -6
DIXON          CLOUDY    18   7  60 E10       29.79S WCI   7
RAWLINS        FAIR      10   3  73 NE3       29.79R
SARATOGA       FAIR       5   1  85 CALM      29.78S
LARAMIE        FAIR      -3  -6  87 W7        29.75F WCI -16
CHEYENNE       FAIR      -1  -5  82 SW7       29.82R WCI -14
TORRINGTON     FAIR       6   1  80 NE9       29.95S WCI  -8
PINE BLUFFS    FAIR       0  -6  78 MISG      29.89F

$$



USA.gov is the U.S. government's official web portal to all federal, state and local government web resources and services.